OK,85,22,706,85,2014-10-01T01:40:00,2,28072033,179202
OK,85,22,706,85,2014-10-01T01:45:00,2,28072476,179202
OK,85,22,706,85,2014-10-01T01:50:00,0,28072925,179202
OK,85,22,706,85,2014-10-01T01:55:00,0,28073372,179202
OK,85,22,706,85,2014-10-01T02:05:00,0,28074138,179202
OK,85,22,706,85,2014-10-01T02:10:00,0,28074587,179202
OK,85,22,706,85,2014-10-01T02:15:00,0,28075027,179202
OK,85,22,706,85,2014-10-01T02:20:00,0,28075476,179202
OK,85,22,706,85,2014-10-01T02:25:00,0,28075925,179202
OK,85,22,706,85,2014-10-01T02:30:00,0,28076308,179202
OK,85,22,706,85,2014-10-01T02:35:00,0,28076757,179202
OK,85,22,706,85,2014-10-01T02:40:00,0,28077206,179202
OK,91,21,706,91,2014-10-01T02:45:00,1,28077655,179202
OK,67,28,706,67,2014-10-01T02:50:00,2,28078058,179202
OK,82,23,706,82,2014-10-01T02:55:00,1,28078507,179202
OK,93,20,706,93,2014-10-01T03:00:00,2,28078952,179202
OK,104,18,706,104,2014-10-01T03:05:00,0,28079400,179202
OK,104,18,706,104,2014-10-01T03:10:00,0,28079843,179202
OK,88,21,706,88,2014-10-01T03:20:00,1,28080626,179202
OK,88,21,706,88,2014-10-01T03:25:00,0,28081075,179202
OK,88,21,706,88,2014-10-01T03:30:00,0,28081524,179202
OK,39,49,706,39,2014-10-01T03:35:00,1,28081971,179202
OK,39,49,706,39,2014-10-01T03:40:00,3,28082420,179202
OK,47,40,706,47,2014-10-01T03:45:00,2,28082853,179202
OK,47,40,706,47,2014-10-01T03:50:00,3,28083285,179202
OK,55,34,706,55,2014-10-01T03:55:00,6,28083734,179202
OK,63,30,706,63,2014-10-01T04:00:00,3,28084183,179202
OK,56,34,706,56,2014-10-01T04:05:00,1,28084624,179202
OK,83,23,706,83,2014-10-01T04:10:00,4,28085049,179202
OK,91,21,706,91,2014-10-01T04:15:00,5,28085498,179202
OK,91,21,706,91,2014-10-01T04:20:00,3,28085943,179202
OK,52,36,706,52,2014-10-01T04:25:00,6,28086392,179202
OK,72,26,706,72,2014-10-01T04:30:00,6,28086834,179202
OK,111,17,706,111,2014-10-01T04:35:00,1,28087283,179202
OK,66,29,706,66,2014-10-01T04:40:00,6,28087728,179202
OK,66,29,706,66,2014-10-01T04:45:00,4,28088177,179202
OK,81,23,706,81,2014-10-01T04:50:00,7,28088601,179202
OK,126,15,706,126,2014-10-01T04:55:00,16,28089050,179202
OK,76,25,706,76,2014-10-01T05:00:00,21,28089480,179202
OK,48,39,706,48,2014-10-01T05:05:00,14,28089929,179202
OK,42,45,706,42,2014-10-01T05:10:00,11,28090378,179202
OK,90,21,706,90,2014-10-01T05:15:00,13,28090722,179202
OK,126,15,706,126,2014-10-01T05:20:00,19,28091171,179202
OK,128,14,706,128,2014-10-01T05:25:00,16,28091620,179202
OK,143,13,706,143,2014-10-01T05:30:00,23,28092037,179202
OK,145,13,706,145,2014-10-01T05:35:00,20,28092486,179202
OK,229,8,706,229,2014-10-01T05:40:00,16,28092930,179202
OK,276,6,706,276,2014-10-01T05:45:00,19,28093371,179202
OK,285,6,706,285,2014-10-01T05:50:00,19,28093802,179202
OK,300,6,706,300,2014-10-01T05:55:00,14,28094251,179202
OK,302,6,706,302,2014-10-01T06:00:00,20,28094662,179202
OK,298,6,706,298,2014-10-01T06:05:00,19,28095107,179202
OK,293,6,706,293,2014-10-01T06:10:00,16,28095554,179202
OK,288,6,706,288,2014-10-01T06:15:00,17,28096003,179202
OK,288,6,706,288,2014-10-01T06:20:00,15,28096416,179202
OK,287,6,706,287,2014-10-01T06:25:00,17,28096865,179202
OK,283,6,706,283,2014-10-01T06:30:00,15,28097299,179202
OK,277,6,706,277,2014-10-01T06:35:00,14,28097748,179202
OK,245,7,706,245,2014-10-01T06:40:00,13,28098197,179202
OK,198,9,706,198,2014-10-01T06:45:00,16,28098634,179202
OK,160,11,706,160,2014-10-01T06:50:00,11,28099078,179202
OK,217,8,706,217,2014-10-01T06:55:00,12,28099526,179202
OK,129,14,706,129,2014-10-01T07:00:00,15,28099869,179202
OK,35,54,706,35,2014-10-01T07:10:00,8,28100625,179202
OK,33,58,706,33,2014-10-01T07:15:00,16,28101072,179202
OK,43,44,706,43,2014-10-01T07:20:00,11,28101445,179202
OK,72,26,706,72,2014-10-01T07:25:00,6,28101894,179202
OK,41,46,706,41,2014-10-01T07:30:00,5,28102330,179202
OK,52,36,706,52,2014-10-01T07:35:00,9,28102779,179202
OK,66,29,706,66,2014-10-01T07:40:00,14,28103206,179202
OK,32,59,706,32,2014-10-01T07:45:00,5,28103653,179202
OK,85,22,706,85,2014-10-01T07:50:00,5,28104098,179202
OK,83,23,706,83,2014-10-01T07:55:00,13,28104543,179202
OK,42,45,706,42,2014-10-01T08:00:00,13,28104984,179202
OK,73,26,706,73,2014-10-01T08:05:00,9,28105429,179202
OK,99,19,706,99,2014-10-01T08:10:00,7,28105869,179202
OK,34,56,706,34,2014-10-01T08:15:00,7,28106318,179202
OK,50,38,706,50,2014-10-01T08:20:00,8,28106755,179202
OK,60,31,706,60,2014-10-01T08:25:00,12,28107161,179202
OK,35,54,706,35,2014-10-01T08:30:00,13,28107593,179202
OK,37,51,706,37,2014-10-01T08:35:00,18,28108042,179202
OK,38,50,706,38,2014-10-01T08:40:00,15,28108481,179202
OK,60,31,706,60,2014-10-01T08:45:00,4,28108930,179202
OK,81,23,706,81,2014-10-01T08:50:00,3,28109358,179202
OK,32,59,706,32,2014-10-01T09:00:00,8,28110150,179202
OK,83,23,706,83,2014-10-01T09:05:00,11,28110599,179202
OK,81,23,706,81,2014-10-01T09:10:00,10,28111022,179202
OK,66,29,706,66,2014-10-01T09:15:00,14,28111471,179202
OK,38,50,706,38,2014-10-01T09:20:00,11,28111900,179202
OK,55,34,706,55,2014-10-01T09:30:00,5,28112690,179202
OK,55,34,706,55,2014-10-01T09:35:00,2,28113139,179202
OK,111,17,706,111,2014-10-01T09:40:00,9,28113563,179202
OK,116,16,706,116,2014-10-01T09:45:00,2,28114012,179202
OK,119,16,706,119,2014-10-01T09:50:00,9,28114444,179202
OK,118,16,706,118,2014-10-01T10:00:00,14,28115247,179202
OK,64,29,706,64,2014-10-01T10:05:00,14,28115696,179202
OK,64,29,706,64,2014-10-01T10:10:00,12,28116108,179202
OK,48,39,706,48,2014-10-01T10:15:00,9,28116557,179202
OK,49,39,706,49,2014-10-01T10:20:00,11,28116965,179202
OK,48,39,706,48,2014-10-01T10:25:00,8,28117414,179202
OK,32,59,706,32,2014-10-01T10:30:00,3,28117839,179202
OK,69,27,706,69,2014-10-01T10:35:00,6,28118288,179202
OK,125,15,706,125,2014-10-01T10:40:00,11,28118733,179202
OK,122,15,706,122,2014-10-01T10:45:00,9,28119180,179202
OK,35,54,706,35,2014-10-01T10:50:00,3,28119624,179202
OK,59,32,706,59,2014-10-01T10:55:00,10,28120072,179202
OK,40,47,706,40,2014-10-01T11:00:00,10,28120520,179202
OK,34,56,706,34,2014-10-01T11:05:00,5,28120969,179202
OK,76,25,706,76,2014-10-01T11:10:00,6,28121352,179202
OK,82,23,706,82,2014-10-01T11:15:00,10,28121801,179202
OK,73,26,706,73,2014-10-01T11:20:00,12,28122239,179202
OK,60,31,706,60,2014-10-01T11:25:00,11,28122688,179202
OK,38,50,706,38,2014-10-01T11:30:00,12,28123129,179202
OK,39,49,706,39,2014-10-01T11:35:00,10,28123578,179202
OK,63,30,706,63,2014-10-01T11:40:00,11,28124010,179202
OK,79,24,706,79,2014-10-01T11:45:00,7,28124459,179202
OK,54,35,706,54,2014-10-01T11:50:00,5,28124861,179202
OK,72,26,706,72,2014-10-01T11:55:00,4,28125310,179202
OK,63,30,706,63,2014-10-01T12:00:00,12,28125739,179202
OK,41,46,706,41,2014-10-01T12:10:00,12,28126540,179202
OK,58,33,706,58,2014-10-01T12:15:00,8,28126989,179202
OK,88,21,706,88,2014-10-01T12:20:00,8,28127438,179202
OK,97,19,706,97,2014-10-01T12:25:00,9,28127887,179202
OK,47,40,706,47,2014-10-01T12:30:00,11,28128315,179202
OK,36,53,706,36,2014-10-01T12:35:00,8,28128764,179202
OK,53,36,706,53,2014-10-01T12:40:00,7,28129199,179202
OK,68,28,706,68,2014-10-01T12:45:00,8,28129648,179202
OK,41,46,706,41,2014-10-01T12:50:00,11,28130082,179202
OK,36,53,706,36,2014-10-01T12:55:00,12,28130531,179202
OK,130,14,706,130,2014-10-01T13:00:00,14,28130959,179202
OK,131,14,706,131,2014-10-01T13:05:00,6,28131408,179202
OK,105,18,706,105,2014-10-01T13:10:00,7,28131845,179202
OK,135,14,706,135,2014-10-01T13:15:00,11,28132294,179202
OK,220,8,706,220,2014-10-01T13:20:00,16,28132732,179202
OK,242,7,706,242,2014-10-01T13:25:00,11,28133179,179202
OK,259,7,706,259,2014-10-01T13:30:00,6,28133617,179202
OK,273,7,706,273,2014-10-01T13:35:00,12,28134066,179202
OK,236,8,706,236,2014-10-01T13:40:00,12,28134505,179202
OK,141,13,706,141,2014-10-01T13:45:00,8,28134954,179202
OK,141,13,706,141,2014-10-01T13:50:00,10,28135373,179202
OK,139,13,706,139,2014-10-01T13:55:00,10,28135822,179202
OK,138,13,706,138,2014-10-01T14:00:00,8,28136259,179202
OK,140,13,706,140,2014-10-01T14:05:00,10,28136708,179202
OK,137,14,706,137,2014-10-01T14:10:00,14,28137148,179202
OK,123,15,706,123,2014-10-01T14:15:00,7,28137597,179202
OK,105,18,706,105,2014-10-01T14:20:00,10,28138031,179202
OK,40,47,706,40,2014-10-01T14:25:00,9,28138480,179202
OK,36,53,706,36,2014-10-01T14:30:00,6,28138908,179202
OK,36,53,706,36,2014-10-01T14:35:00,5,28139357,179202
OK,38,50,706,38,2014-10-01T14:40:00,7,28139768,179202
OK,40,47,706,40,2014-10-01T14:45:00,5,28140217,179202
OK,48,39,706,48,2014-10-01T14:50:00,7,28140659,179202
OK,47,40,706,47,2014-10-01T14:55:00,6,28141107,179202
OK,59,32,706,59,2014-10-01T15:00:00,7,28141534,179202
OK,125,15,706,125,2014-10-01T15:05:00,5,28141983,179202
OK,38,50,706,38,2014-10-01T15:10:00,7,28142411,179202
OK,60,31,706,60,2014-10-01T15:15:00,7,28142860,179202
OK,54,35,706,54,2014-10-01T15:20:00,7,28143287,179202
OK,44,43,706,44,2014-10-01T15:25:00,4,28143736,179202
OK,58,33,706,58,2014-10-01T15:30:00,2,28144184,179202
OK,35,54,706,35,2014-10-01T15:35:00,6,28144633,179202
OK,35,54,706,35,2014-10-01T15:40:00,6,28145054,179202
OK,52,36,706,52,2014-10-01T15:45:00,2,28145468,179202
OK,32,59,706,32,2014-10-01T15:50:00,5,28145917,179202
OK,33,58,706,33,2014-10-01T15:55:00,7,28146366,179202
OK,46,41,706,46,2014-10-01T16:00:00,2,28146815,179202
OK,28,68,706,28,2014-10-01T16:05:00,1,28147223,179202
OK,34,56,706,34,2014-10-01T16:10:00,7,28147667,179202
OK,35,54,706,35,2014-10-01T16:15:00,8,28148116,179202
OK,42,45,706,42,2014-10-01T16:20:00,2,28148517,179202
OK,32,59,706,32,2014-10-01T16:25:00,3,28148966,179202
OK,34,56,706,34,2014-10-01T16:30:00,3,28149405,179202
OK,34,56,706,34,2014-10-01T16:35:00,1,28149854,179202
OK,39,49,706,39,2014-10-01T16:40:00,1,28150280,179202
OK,65,29,706,65,2014-10-01T16:45:00,2,28150729,179202
OK,33,58,706,33,2014-10-01T16:50:00,6,28151147,179202
OK,33,58,706,33,2014-10-01T16:55:00,4,28151596,179202
OK,33,58,706,33,2014-10-01T17:05:00,4,28152045,179202
OK,42,45,706,42,2014-10-01T17:10:00,2,28152494,179202
OK,70,27,706,70,2014-10-01T17:15:00,2,28152940,179202
OK,28,68,706,28,2014-10-01T17:20:00,4,28153387,179202
OK,28,68,706,28,2014-10-01T17:25:00,3,28153836,179202
OK,28,68,706,28,2014-10-01T17:30:00,3,28154246,179202
OK,26,73,706,26,2014-10-01T17:35:00,2,28154695,179202
OK,44,43,706,44,2014-10-01T17:40:00,4,28155137,179202
OK,59,32,706,59,2014-10-01T17:45:00,3,28155585,179202
OK,51,37,706,51,2014-10-01T17:50:00,2,28156003,179202
OK,28,68,706,28,2014-10-01T17:55:00,1,28156452,179202
OK,37,51,706,37,2014-10-01T18:00:00,1,28156900,179202
OK,32,59,706,32,2014-10-01T18:05:00,2,28157339,179202
OK,79,24,706,79,2014-10-01T18:10:00,3,28157769,179202
OK,81,23,706,81,2014-10-01T18:15:00,2,28158217,179202
OK,65,29,706,65,2014-10-01T18:20:00,2,28158661,179202
OK,65,29,706,65,2014-10-01T18:25:00,4,28159106,179202
OK,91,21,706,91,2014-10-01T18:35:00,1,28159888,179202
OK,61,31,706,61,2014-10-01T18:40:00,2,28160337,179202
OK,27,71,706,27,2014-10-01T18:45:00,1,28160786,179202
OK,27,71,706,27,2014-10-01T18:50:00,1,28161224,179202
OK,74,25,706,74,2014-10-01T18:55:00,1,28161673,179202
OK,74,25,706,74,2014-10-01T19:00:00,1,28162090,179202
OK,30,63,706,30,2014-10-01T19:05:00,1,28162539,179202
OK,39,49,706,39,2014-10-01T19:10:00,2,28162933,179202
OK,39,49,706,39,2014-10-01T19:15:00,2,28163372,179202
OK,72,26,706,72,2014-10-01T19:20:00,2,28163820,179202
OK,104,18,706,104,2014-10-01T19:25:00,3,28164269,179202
OK,32,59,706,32,2014-10-01T19:30:00,4,28164700,179202
OK,34,56,706,34,2014-10-01T19:35:00,6,28165149,179202
OK,45,42,706,45,2014-10-01T19:40:00,4,28165574,179202
OK,42,45,706,42,2014-10-01T19:45:00,6,28166022,179202
OK,29,66,706,29,2014-10-01T19:55:00,4,28166825,179202
OK,33,58,706,33,2014-10-01T20:00:00,3,28167274,179202
OK,52,36,706,52,2014-10-01T20:05:00,1,28167702,179202
OK,52,36,706,52,2014-10-01T20:10:00,0,28168136,179202
OK,52,36,706,52,2014-10-01T20:15:00,0,28168585,179202
OK,24,79,706,24,2014-10-01T20:20:00,1,28169030,179202
OK,24,79,706,24,2014-10-01T20:25:00,1,28169479,179202
OK,32,59,706,32,2014-10-01T20:30:00,2,28169927,179202
OK,32,59,706,32,2014-10-01T20:35:00,3,28170353,179202
OK,29,66,706,29,2014-10-01T20:40:00,0,28170798,179202
OK,108,17,706,108,2014-10-01T20:45:00,2,28171246,179202
OK,69,27,706,69,2014-10-01T20:50:00,4,28171683,179202
OK,31,61,706,31,2014-10-01T20:55:00,1,28172129,179202
OK,77,24,706,77,2014-10-01T21:00:00,1,28172577,179202
OK,94,20,706,94,2014-10-01T21:05:00,2,28173023,179202
OK,94,20,706,94,2014-10-01T21:10:00,2,28173469,179202
OK,77,24,706,77,2014-10-01T21:15:00,0,28173918,179202
OK,77,24,706,77,2014-10-01T21:20:00,0,28174359,179202
OK,77,24,706,77,2014-10-01T21:25:00,0,28174808,179202
OK,28,68,706,28,2014-10-01T21:35:00,1,28175630,179202
OK,28,68,706,28,2014-10-01T21:40:00,1,28176079,179202
OK,28,68,706,28,2014-10-01T21:45:00,0,28176528,179202
OK,28,68,706,28,2014-10-01T21:50:00,0,28176977,179202
OK,28,68,706,28,2014-10-01T21:55:00,0,28177333,179202
OK,28,68,706,28,2014-10-01T22:00:00,0,28177773,179202
OK,28,68,706,28,2014-10-01T22:05:00,0,28178219,179202
OK,28,68,706,28,2014-10-01T22:10:00,0,28178668,179202
OK,28,68,706,28,2014-10-01T22:15:00,0,28179115,179202
OK,28,68,706,28,2014-10-01T22:20:00,0,28179549,179202
OK,28,68,706,28,2014-10-01T22:25:00,0,28179992,179202
OK,28,68,706,28,2014-10-01T22:30:00,0,28180439,179202
OK,80,23,706,80,2014-10-01T22:35:00,2,28180837,179202
OK,80,23,706,80,2014-10-01T22:40:00,0,28181286,179202
OK,80,23,706,80,2014-10-01T22:45:00,0,28181710,179202
OK,83,23,706,83,2014-10-01T22:50:00,1,28182158,179202
OK,83,23,706,83,2014-10-01T22:55:00,0,28182605,179202
OK,83,23,706,83,2014-10-01T23:00:00,0,28183054,179202
OK,83,23,706,83,2014-10-01T23:10:00,0,28183904,179202
OK,83,23,706,83,2014-10-01T23:15:00,0,28184349,179202
OK,95,20,706,95,2014-10-01T23:20:00,1,28184798,179202
OK,95,20,706,95,2014-10-01T23:25:00,0,28185233,179202
OK,95,20,706,95,2014-10-01T23:30:00,0,28186060,179202
OK,95,20,706,95,2014-10-01T23:40:00,0,28186504,179202
OK,95,20,706,95,2014-10-01T23:45:00,0,28187344,179202
OK,95,20,706,95,2014-10-01T23:50:00,0,28187793,179202
OK,95,20,706,95,2014-10-01T23:55:00,0,28188235,179202
OK,95,20,706,95,2014-10-02T00:00:00,0,28188671,179202
OK,95,20,706,95,2014-10-02T00:10:00,0,28189119,179202
OK,95,20,706,95,2014-10-02T00:15:00,0,28189568,179202
OK,95,20,706,95,2014-10-02T00:20:00,0,28189990,179202
OK,95,20,706,95,2014-10-02T00:30:00,0,28190792,179202
OK,95,20,706,95,2014-10-02T00:35:00,0,28191241,179202
OK,34,56,706,34,2014-10-02T00:45:00,1,28191996,179202
OK,34,56,706,34,2014-10-02T00:50:00,0,28192445,179202
OK,34,56,706,34,2014-10-02T00:55:00,0,28192878,179202
OK,34,56,706,34,2014-10-02T01:00:00,0,28193295,179202
OK,34,56,706,34,2014-10-02T01:05:00,0,28193689,179202
OK,34,56,706,34,2014-10-02T01:10:00,0,28194138,179202
OK,34,56,706,34,2014-10-02T01:15:00,0,28194587,179202
OK,34,56,706,34,2014-10-02T01:25:00,0,28195272,179202
OK,34,56,706,34,2014-10-02T01:30:00,0,28195721,179202
OK,34,56,706,34,2014-10-02T01:35:00,0,28196170,179202
OK,34,56,706,34,2014-10-02T01:40:00,0,28196454,179202
OK,34,56,706,34,2014-10-02T01:45:00,0,28196903,179202
OK,34,56,706,34,2014-10-02T01:50:00,0,28197326,179202
OK,34,56,706,34,2014-10-02T01:55:00,0,28197775,179202
OK,34,56,706,34,2014-10-02T02:00:00,0,28198223,179202
OK,34,56,706,34,2014-10-02T02:05:00,0,28198671,179202
OK,34,56,706,34,2014-10-02T02:10:00,0,28199120,179202
OK,34,56,706,34,2014-10-02T02:15:00,0,28199492,179202
OK,34,56,706,34,2014-10-02T02:20:00,0,28199934,179202
OK,34,56,706,34,2014-10-02T02:25:00,0,28200376,179202
OK,59,32,706,59,2014-10-02T02:30:00,1,28200819,179202
OK,59,32,706,59,2014-10-02T02:35:00,0,28201268,179202
OK,59,32,706,59,2014-10-02T02:45:00,0,28201699,179202
OK,59,32,706,59,2014-10-02T02:50:00,0,28202148,179202
OK,59,32,706,59,2014-10-02T02:55:00,0,28202597,179202
OK,67,28,706,67,2014-10-02T03:00:00,1,28203039,179202
OK,67,28,706,67,2014-10-02T03:05:00,0,28203487,179202
OK,67,28,706,67,2014-10-02T03:15:00,0,28203922,179202
OK,67,28,706,67,2014-10-02T03:30:00,0,28204371,179202
OK,32,59,706,32,2014-10-02T03:35:00,1,28204820,179202
OK,32,59,706,32,2014-10-02T03:40:00,0,28205269,179202
OK,74,25,706,74,2014-10-02T03:45:00,1,28205697,179202
OK,74,25,706,74,2014-10-02T03:50:00,0,28206124,179202
OK,74,25,706,74,2014-10-02T03:55:00,0,28206527,179202
OK,59,32,706,59,2014-10-02T04:00:00,3,28206976,179202
OK,59,32,706,59,2014-10-02T04:05:00,0,28207425,179202
OK,78,24,706,78,2014-10-02T04:10:00,2,28207844,179202
OK,60,31,706,60,2014-10-02T04:15:00,1,28208293,179202
OK,32,59,706,32,2014-10-02T04:20:00,1,28208720,179202
OK,32,59,706,32,2014-10-02T04:25:00,0,28209169,179202
OK,34,56,706,34,2014-10-02T04:30:00,1,28209607,179202
OK,34,56,706,34,2014-10-02T04:35:00,0,28210056,179202
OK,42,45,706,42,2014-10-02T04:40:00,6,28210479,179202
OK,57,33,706,57,2014-10-02T04:45:00,1,28210928,179202
OK,57,33,706,57,2014-10-02T04:50:00,0,28211353,179202
OK,133,14,706,133,2014-10-02T05:00:00,1,28212175,179202
OK,67,28,706,67,2014-10-02T05:05:00,6,28212624,179202
OK,29,66,706,29,2014-10-02T05:10:00,1,28213053,179202
OK,37,51,706,37,2014-10-02T05:15:00,7,28213502,179202
OK,85,22,706,85,2014-10-02T05:20:00,2,28213940,179202
OK,76,25,706,76,2014-10-02T05:25:00,13,28214389,179202
OK,130,14,706,130,2014-10-02T05:30:00,4,28214802,179202
OK,86,22,706,86,2014-10-02T05:35:00,0,28215251,179202
OK,146,13,706,146,2014-10-02T05:40:00,18,28215667,179202
OK,181,10,706,181,2014-10-02T05:45:00,10,28216116,179202
OK,153,12,706,153,2014-10-02T05:50:00,0,28216455,179202
OK,236,8,706,236,2014-10-02T05:55:00,20,28216895,179202
OK,242,7,706,242,2014-10-02T06:00:00,27,28217342,179202
OK,250,7,706,250,2014-10-02T06:05:00,21,28217791,179202
OK,254,7,706,254,2014-10-02T06:10:00,7,28218230,179202
OK,146,13,706,146,2014-10-02T06:15:00,11,28218679,179202
OK,139,13,706,139,2014-10-02T06:20:00,12,28219099,179202
OK,83,23,706,83,2014-10-02T06:30:00,11,28219921,179202
OK,105,18,706,105,2014-10-02T06:35:00,17,28220370,179202
OK,129,14,706,129,2014-10-02T06:40:00,12,28220804,179202
OK,36,53,706,36,2014-10-02T06:45:00,12,28221253,179202
OK,42,45,706,42,2014-10-02T07:00:00,11,28221920,179202
OK,42,45,706,42,2014-10-02T07:05:00,3,28222065,179202
OK,42,45,706,42,2014-10-02T07:10:00,9,28222514,179202
OK,41,46,706,41,2014-10-02T07:15:00,8,28222963,179202
OK,36,53,706,36,2014-10-02T07:20:00,0,28223394,179202
OK,47,40,706,47,2014-10-02T07:25:00,3,28223829,179202
OK,58,33,706,58,2014-10-02T07:35:00,4,28224632,179202
OK,57,33,706,57,2014-10-02T07:40:00,1,28225081,179202
OK,57,33,706,57,2014-10-02T07:45:00,0,28225491,179202
OK,61,31,706,61,2014-10-02T07:50:00,8,28225852,179202
OK,52,36,706,52,2014-10-02T07:55:00,9,28226301,179202
OK,58,33,706,58,2014-10-02T08:00:00,3,28226742,179202
OK,55,34,706,55,2014-10-02T08:05:00,6,28227191,179202
OK,55,34,706,55,2014-10-02T08:10:00,2,28227606,179202
OK,56,34,706,56,2014-10-02T08:15:00,4,28228052,179202
OK,78,24,706,78,2014-10-02T08:20:00,2,28228414,179202
OK,126,15,706,126,2014-10-02T08:25:00,11,28228863,179202
OK,27,71,706,27,2014-10-02T08:30:00,1,28229273,179202
OK,88,21,706,88,2014-10-02T08:40:00,3,28230072,179202
OK,88,21,706,88,2014-10-02T08:45:00,0,28230521,179202
OK,72,26,706,72,2014-10-02T08:50:00,10,28230887,179202
OK,34,56,706,34,2014-10-02T08:55:00,4,28231334,179202
OK,120,15,706,120,2014-10-02T09:00:00,3,28231759,179202
OK,33,58,706,33,2014-10-02T09:15:00,5,28232550,179202
OK,33,58,706,33,2014-10-02T09:20:00,3,28232999,179202
OK,65,29,706,65,2014-10-02T09:25:00,4,28233448,179202
OK,99,19,706,99,2014-10-02T09:30:00,1,28233872,179202
OK,28,68,706,28,2014-10-02T09:40:00,0,28234654,179202
OK,82,23,706,82,2014-10-02T09:45:00,2,28235103,179202
OK,135,14,706,135,2014-10-02T09:50:00,0,28235530,179202
OK,49,39,706,49,2014-10-02T09:55:00,5,28235979,179202
OK,49,39,706,49,2014-10-02T10:00:00,3,28236422,179202
OK,49,39,706,49,2014-10-02T10:05:00,0,28236869,179202
OK,31,61,706,31,2014-10-02T10:10:00,7,28237271,179202
OK,34,56,706,34,2014-10-02T10:15:00,8,28237719,179202
OK,45,42,706,45,2014-10-02T10:20:00,8,28238168,179202
OK,123,15,706,123,2014-10-02T10:25:00,3,28238615,179202
OK,128,14,706,128,2014-10-02T10:30:00,0,28239056,179202
OK,40,47,706,40,2014-10-02T10:35:00,8,28239505,179202
OK,64,29,706,64,2014-10-02T10:40:00,6,28239935,179202
OK,37,51,706,37,2014-10-02T10:45:00,7,28240384,179202
OK,34,56,706,34,2014-10-02T10:50:00,2,28240828,179202
OK,35,54,706,35,2014-10-02T10:55:00,8,28241277,179202
OK,37,51,706,37,2014-10-02T11:00:00,3,28241709,179202
OK,124,15,706,124,2014-10-02T11:05:00,0,28242157,179202
OK,58,33,706,58,2014-10-02T11:10:00,5,28242553,179202
OK,31,61,706,31,2014-10-02T11:15:00,3,28243002,179202
OK,44,43,706,44,2014-10-02T11:20:00,10,28243451,179202
OK,43,44,706,43,2014-10-02T11:25:00,4,28243776,179202
OK,43,44,706,43,2014-10-02T11:30:00,0,28244214,179202
OK,48,39,706,48,2014-10-02T11:35:00,8,28244643,179202
OK,36,53,706,36,2014-10-02T11:40:00,3,28245092,179202
OK,28,68,706,28,2014-10-02T11:45:00,0,28245541,179202
OK,50,38,706,50,2014-10-02T11:50:00,11,28245947,179202
OK,45,42,706,45,2014-10-02T11:55:00,12,28246396,179202
OK,39,49,706,39,2014-10-02T12:00:00,8,28246833,179202
OK,39,49,706,39,2014-10-02T12:05:00,4,28247281,179202
OK,39,49,706,39,2014-10-02T12:10:00,0,28247728,179202
OK,34,56,706,34,2014-10-02T12:15:00,10,28248158,179202
OK,35,54,706,35,2014-10-02T12:20:00,1,28248607,179202
OK,80,23,706,80,2014-10-02T12:25:00,12,28249054,179202
OK,40,47,706,40,2014-10-02T12:30:00,4,28249482,179202
OK,38,50,706,38,2014-10-02T12:35:00,8,28249926,179202
OK,91,21,706,91,2014-10-02T12:40:00,4,28250310,179202
OK,127,15,706,127,2014-10-02T12:45:00,12,28251076,179202
OK,105,18,706,105,2014-10-02T13:20:00,8,28251603,179202
OK,133,14,706,133,2014-10-02T13:30:00,8,28252068,179202
OK,118,16,706,118,2014-10-02T13:35:00,6,28252205,179202
OK,109,17,706,109,2014-10-02T13:40:00,0,28252652,179202
OK,133,14,706,133,2014-10-02T13:50:00,5,28253511,179202
OK,133,14,706,133,2014-10-02T13:55:00,15,28253960,179202
OK,37,51,706,37,2014-10-02T14:10:00,8,28254691,179202
OK,53,36,706,53,2014-10-02T14:15:00,5,28254814,179202
OK,136,14,706,136,2014-10-02T14:20:00,13,28255263,179202
OK,136,14,706,136,2014-10-02T14:25:00,6,28255712,179202
OK,149,12,706,149,2014-10-02T14:30:00,12,28256140,179202
OK,151,12,706,151,2014-10-02T14:35:00,4,28256589,179202
OK,126,15,706,126,2014-10-02T14:40:00,8,28257017,179202
OK,36,53,706,36,2014-10-02T14:45:00,7,28257466,179202
OK,46,41,706,46,2014-10-02T14:50:00,12,28257907,179202
OK,81,23,706,81,2014-10-02T14:55:00,8,28258355,179202
OK,43,44,706,43,2014-10-02T15:00:00,11,28258788,179202
OK,38,50,706,38,2014-10-02T15:05:00,7,28259234,179202
OK,51,37,706,51,2014-10-02T15:10:00,8,28259682,179202
OK,43,44,706,43,2014-10-02T15:15:00,12,28260130,179202
OK,48,39,706,48,2014-10-02T15:20:00,5,28260563,179202
OK,36,53,706,36,2014-10-02T15:25:00,5,28261010,179202
OK,34,56,706,34,2014-10-02T15:35:00,11,28261815,179202
OK,111,17,706,111,2014-10-02T15:40:00,4,28262264,179202
OK,63,30,706,63,2014-10-02T15:45:00,15,28262711,179202
OK,100,19,706,100,2014-10-02T15:50:00,9,28263157,179202
OK,105,18,706,105,2014-10-02T15:55:00,0,28263595,179202
OK,40,47,706,40,2014-10-02T16:05:00,10,28264438,179202
OK,40,47,706,40,2014-10-02T16:10:00,6,28264887,179202
OK,131,14,706,131,2014-10-02T16:15:00,1,28265325,179202
OK,72,26,706,72,2014-10-02T16:25:00,8,28266161,179202
OK,38,50,706,38,2014-10-02T16:30:00,2,28266610,179202
OK,49,39,706,49,2014-10-02T16:35:00,1,28267382,179202
OK,65,29,706,65,2014-10-02T16:45:00,1,28267831,179202
OK,65,29,706,65,2014-10-02T16:50:00,0,28268280,179202
OK,37,51,706,37,2014-10-02T16:55:00,7,28268722,179202
OK,34,56,706,34,2014-10-02T17:00:00,6,28269171,179202
OK,31,61,706,31,2014-10-02T17:05:00,4,28269620,179202
OK,53,36,706,53,2014-10-02T17:10:00,2,28270055,179202